Location: Newark
(46.7000°N, 60.6000°W)
Time: 08:41:30
(UTC+00:00)

Vanguard 3 - Pass Details

Date: 02 November 2020
Orbit: 508 x 3262 km, 33.3° (Epoch: 29 November)

Event Time Altitude Azimuth Distance (km) Brightness Sun altitude
Rises 11:27:46 0° 264° (W) 6,543 11.3 5.5°
Reaches altitude 10° 11:31:56 10° 259° (W) 5,775 11.1 6.2°
Maximum altitude 11:49:44 51° 192° (SSW) 3,806 10.9 8.8°
Drops below altitude 10° 12:06:56 10° 124° (SE) 5,587 15.2 11.2°
Sets 12:10:53 0° 119° (ESE) 6,325 13.7 11.7°
